DW2781 Weather Reports


time (UTC)temp
C
wind
direction
speed
KPH
gust
KPH
rain 1hr
cm
rain 24hr
cm
rain mn
cm
humidity
%
barometer
mb
20260906204004 41 166 6.4 17.7 0.00 0.00 0.00 31 1011.6
20260906203504 41 163 9.7 20.9 0.00 0.00 0.00 32 1011.8
20260906203005 41 174 8.0 20.9 0.00 0.00 0.00 32 1011.8
20260906202505 40 179 4.8 17.7 0.00 0.00 0.00 31 1011.8
20260906202005 41 167 6.4 17.7 0.00 0.00 0.00 32 1012.0
20260906201505 41 115 6.4 17.7 0.00 0.00 0.00 33 1011.9
20260906201026 41 94 6.4 12.9 0.00 0.00 0.00 34 1012.0
20260906200505 41 104 8.0 19.3 0.00 0.00 0.00 34 1012.1
20260906200005 41 122 6.4 19.3 0.00 0.00 0.00 33 1012.2
20260906195526 41 166 3.2 11.3 0.00 0.00 0.00 32 1012.3
20260906195004 41 167 6.4 20.9 0.00 0.00 0.00 33 1012.4
20260906194504 41 169 9.7 20.9 0.00 0.00 0.00 32 1012.5
20260906194004 41 161 9.7 20.9 0.00 0.00 0.00 33 1012.5
20260906193504 40 178 6.4 19.3 0.00 0.00 0.00 34 1012.5
20260906193004 39 192 6.4 17.7 0.00 0.00 0.00 39 1012.6
20260906192504 40 187 8.0 19.3 0.00 0.00 0.00 33 1012.8
20260906192004 40 197 9.7 25.7 0.00 0.00 0.00 35 1012.8
20260906191505 40 195 11.3 25.7 0.00 0.00 0.00 33 1012.8
20260906191005 40 184 8.0 22.5 0.00 0.00 0.00 31 1012.9
20260906190526 41 165 4.8 17.7 0.00 0.00 0.00 34 1012.9
20260906190026 40 132 3.2 14.5 0.00 0.00 0.00 37 1013.0
20260906185505 40 144 4.8 19.3 0.00 0.00 0.00 35 1013.1
20260906185005 40 148 4.8 22.5 0.00 0.00 0.00 35 1013.1
20260906184504 40 115 3.2 22.5 0.00 0.00 0.00 36 1013.2
20260906184004 39 84 3.2 12.9 0.00 0.00 0.00 40 1013.3
20260906183525 39 157 4.8 16.1 0.00 0.00 0.00 35 1013.4
20260906183004 39 156 6.4 16.1 0.00 0.00 0.00 38 1013.5
20260906182504 40 129 6.4 16.1 0.00 0.00 0.00 36 1013.6
20260906182004 39 161 4.8 16.1 0.00 0.00 0.00 39 1013.6
20260906181504 38 218 4.8 12.9 0.00 0.00 0.00 37 1013.7
20260906181025 38 193 8.0 25.7 0.00 0.00 0.00 36 1013.7
20260906180504 39 177 9.7 25.7 0.00 0.00 0.00 37 1013.8
20260906180004 39 167 8.0 17.7 0.00 0.00 0.00 38 1013.9
20260906175505 38 164 4.8 17.7 0.00 0.00 0.00 38 1014.0
20260906175005 38 151 4.8 14.5 0.00 0.00 0.00 40 1014.1
20260906174504 38 116 6.4 14.5 0.00 0.00 0.00 40 1014.2
20260906174025 38 83 8.0 19.3 0.00 0.00 0.00 42 1014.4
20260906173526 37 87 6.4 19.3 0.00 0.00 0.00 43 1014.4
20260906173026 38 132 4.8 19.3 0.00 0.00 0.00 41 1014.4
20260906172504 37 171 6.4 16.1 0.00 0.00 0.00 40 1014.6
20260906172005 38 133 6.4 16.1 0.00 0.00 0.00 40 1014.7
20260906171504 37 106 4.8 12.9 0.00 0.00 0.00 45 1014.8
20260906171004 36 119 3.2 11.3 0.00 0.00 0.00 47 1014.8
20260906170504 35 230 1.6 9.7 0.00 0.00 0.00 46 1014.9
20260906170004 35 250 3.2 11.3 0.00 0.00 0.00 45 1015.0
20260906165504 36 253 1.6 11.3 0.00 0.00 0.00 44 1015.0
20260906165004 36 248 1.6 11.3 0.00 0.00 0.00 44 1015.1
20260906164504 35 242 3.2 11.3 0.00 0.00 0.00 45 1015.2
20260906164004 35 233 1.6 6.4 0.00 0.00 0.00 45 1015.3
20260906163504 35 233 0.0 6.4 0.00 0.00 0.00 45 1015.3
20260906163004 35 235 3.2 12.9 0.00 0.00 0.00 45 1015.3
20260906162504 35 235 3.2 12.9 0.00 0.00 0.00 44 1015.3
20260906162004 36 230 3.2 14.5 0.00 0.00 0.00 43 1015.2
20260906161504 36 202 3.2 14.5 0.00 0.00 0.00 43 1015.2
20260906161004 36 184 4.8 11.3 0.00 0.00 0.00 43 1015.2
20260906160504 35 189 4.8 12.9 0.00 0.00 0.00 45 1015.2
20260906160026 35 193 3.2 12.9 0.00 0.00 0.00 45 1015.1
20260906155505 35 185 3.2 9.7 0.00 0.00 0.00 46 1015.1
20260906155004 35 187 4.8 11.3 0.00 0.00 0.00 46 1015.1
20260906154504 34 189 3.2 11.3 0.00 0.00 0.00 48 1015.0
20260906154005 34 204 3.2 9.7 0.00 0.00 0.00 51 1015.0
20260906153504 33 212 3.2 9.7 0.00 0.00 0.00 50 1015.0
20260906153004 33 227 4.8 12.9 0.00 0.00 0.00 50 1015.0
20260906152504 33 241 3.2 12.9 0.00 0.00 0.00 50 1014.9
20260906152004 33 226 3.2 11.3 0.00 0.00 0.00 52 1015.0
20260906151504 32 216 3.2 6.4 0.00 0.00 0.00 53 1014.8
20260906151004 32 226 3.2 8.0 0.00 0.00 0.00 54 1014.9
20260906150504 32 244 3.2 8.0 0.00 0.00 0.00 56 1014.9
20260906150004 32 248 3.2 8.0 0.00 0.00 0.00 55 1014.9
20260906145526 31 232 3.2 9.7 0.00 0.00 0.00 55 1014.9
20260906145005 31 234 3.2 12.9 0.00 0.00 0.00 56 1014.9
20260906144505 31 248 4.8 12.9 0.00 0.00 0.00 56 1014.9
20260906144005 31 237 3.2 11.3 0.00 0.00 0.00 57 1014.9
20260906143505 30 218 3.2 9.7 0.00 0.00 0.00 58 1014.9
20260906143004 30 209 3.2 9.7 0.00 0.00 0.00 58 1014.9
20260906142525 30 207 1.6 8.0 0.00 0.00 0.00 60 1014.9
20260906142004 30 215 4.8 11.3 0.00 0.00 0.00 60 1014.8
20260906141505 29 220 4.8 11.3 0.00 0.00 0.00 61 1014.8
20260906141004 29 227 3.2 12.9 0.00 0.00 0.00 62 1014.8
20260906140504 28 224 3.2 12.9 0.00 0.00 0.00 63 1014.7
20260906140004 28 221 3.2 8.0 0.00 0.00 0.00 65 1014.7
20260906135504 27 216 3.2 8.0 0.00 0.00 0.00 66 1014.6
20260906135025 27 208 1.6 6.4 0.00 0.00 0.00 67 1014.5
20260906134504 27 200 1.6 4.8 0.00 0.00 0.00 70 1014.5
20260906134004 26 200 1.6 4.8 0.00 0.00 0.00 69 1014.5
20260906133504 26 200 0.0 3.2 0.00 0.00 0.00 70 1014.5
20260906133004 26 200 0.0 4.8 0.00 0.00 0.00 70 1014.5
20260906132504 26 200 0.0 4.8 0.00 0.00 0.00 71 1014.4
20260906132004 26 200 0.0 3.2 0.00 0.00 0.00 70 1014.6
20260906131504 25 200 0.0 3.2 0.00 0.00 0.00 70 1014.4
20260906131005 25 200 1.6 4.8 0.00 0.00 0.00 70 1014.4
20260906130505 25 199 1.6 6.4 0.00 0.00 0.00 70 1014.3
20260906130005 25 199 1.6 6.4 0.00 0.00 0.00 70 1014.3
20260906125505 25 198 0.0 4.8 0.00 0.00 0.00 70 1014.2
20260906125004 25 0 0.0 0.0 0.00 0.00 0.00 70 1014.2
20260906124504 25 0 0.0 0.0 0.00 0.00 0.00 70 1014.1
20260906124004 25 0 0.0 0.0 0.00 0.00 0.00 69 1014.1
20260906123504 25 0 0.0 0.0 0.00 0.00 0.00 69 1014.0
20260906123004 25 0 0.0 0.0 0.00 0.00 0.00 68 1014.0
20260906122504 25 0 0.0 0.0 0.00 0.00 0.00 68 1013.9
20260906122005 25 0 0.0 0.0 0.00 0.00 0.00 68 1013.9
20260906121525 25 0 0.0 0.0 0.00 0.00 0.00 68 1013.8
20260906121004 25 0 0.0 0.0 0.00 0.00 0.00 67 1013.8
20260906120504 25 0 0.0 0.0 0.00 0.00 0.00 67 1013.8
20260906120004 25 0 0.0 0.0 0.00 0.00 0.00 67 1013.8
20260906115504 25 0 0.0 0.0 0.00 0.00 0.00 67 1013.7
20260906115004 25 0 0.0 0.0 0.00 0.00 0.00 66 1013.7
20260906114525 25 0 0.0 0.0 0.00 0.00 0.00 66 1013.6
20260906114004 25 0 0.0 0.0 0.00 0.00 0.00 66 1013.5
20260906113504 25 0 0.0 0.0 0.00 0.00 0.00 66 1013.4
20260906113004 26 0 0.0 0.0 0.00 0.00 0.00 66 1013.4
20260906112526 26 0 0.0 0.0 0.00 0.00 0.00 66 1013.4
20260906112004 26 0 0.0 0.0 0.00 0.00 0.00 65 1013.2
20260906111504 26 0 0.0 0.0 0.00 0.00 0.00 65 1013.2
20260906111004 26 0 0.0 0.0 0.00 0.00 0.00 65 1013.2
20260906110525 26 0 0.0 0.0 0.00 0.00 0.00 65 1013.2
20260906110004 26 0 0.0 0.0 0.00 0.00 0.00 64 1013.2
20260906105504 26 0 0.0 0.0 0.00 0.00 0.00 64 1013.2
20260906105004 26 0 0.0 0.0 0.00 0.00 0.00 63 1013.2
20260906104525 26 0 0.0 0.0 0.00 0.00 0.00 63 1013.1
20260906104025 26 0 0.0 0.0 0.00 0.00 0.00 63 1013.0
20260906103504 26 0 0.0 0.0 0.00 0.00 0.00 63 1013.0
20260906103004 26 0 0.0 0.0 0.00 0.00 0.00 63 1013.0
20260906102504 26 0 0.0 0.0 0.00 0.00 0.00 62 1013.1
20260906102025 26 0 0.0 0.0 0.00 0.00 0.00 62 1013.1
20260906101504 27 0 0.0 0.0 0.00 0.00 0.00 62 1012.9
20260906101003 27 0 0.0 0.0 0.00 0.00 0.00 62 1012.9
20260906100504 27 0 0.0 0.0 0.00 0.00 0.00 62 1012.9
20260906100003 27 0 0.0 0.0 0.00 0.00 0.00 61 1012.9
20260906095504 27 0 0.0 0.0 0.00 0.00 0.00 61 1013.0
20260906095004 27 0 0.0 0.0 0.00 0.00 0.00 59 1012.8
20260906094504 27 0 0.0 0.0 0.00 0.00 0.00 59 1012.9
20260906094004 27 0 0.0 0.0 0.00 0.00 0.00 59 1012.9
20260906093504 27 0 0.0 0.0 0.00 0.00 0.00 59 1012.8
20260906093004 27 0 0.0 0.0 0.00 0.00 0.00 59 1012.8
20260906092504 27 0 0.0 0.0 0.00 0.00 0.00 59 1012.8
20260906092004 27 0 0.0 0.0 0.00 0.00 0.00 58 1012.9
20260906091504 27 0 0.0 0.0 0.00 0.00 0.00 59 1013.0
20260906091004 27 0 0.0 0.0 0.00 0.00 0.00 58 1012.9
20260906090504 27 0 0.0 0.0 0.00 0.00 0.00 58 1012.9
20260906090004 28 0 0.0 0.0 0.00 0.00 0.00 58 1012.9
20260906085504 28 0 0.0 0.0 0.00 0.00 0.00 58 1012.8
20260906085004 28 0 0.0 0.0 0.00 0.00 0.00 58 1012.9
20260906084524 28 0 0.0 0.0 0.00 0.00 0.00 58 1012.9
20260906084005 28 0 0.0 0.0 0.00 0.00 0.00 57 1012.8
20260906083504 28 0 0.0 0.0 0.00 0.00 0.00 57 1012.8
20260906083004 28 0 0.0 0.0 0.00 0.00 0.00 57 1012.7
20260906082505 28 0 0.0 0.0 0.00 0.00 0.00 56 1012.7
20260906082025 28 0 0.0 0.0 0.00 0.00 0.00 56 1012.7
20260906081504 28 0 0.0 0.0 0.00 0.00 0.00 56 1012.7
20260906081004 28 196 0.0 4.8 0.00 0.00 0.00 56 1012.8
20260906080504 28 196 1.6 4.8 0.00 0.00 0.00 55 1012.7
20260906080004 28 196 1.6 4.8 0.00 0.00 0.00 55 1012.8
20260906075504 28 197 1.6 4.8 0.00 0.00 0.00 54 1012.7
20260906075004 28 197 0.0 3.2 0.00 0.00 0.00 54 1012.7
20260906074504 29 0 0.0 0.0 0.00 0.00 0.00 54 1012.7
20260906074004 29 0 0.0 0.0 0.00 0.00 0.00 53 1012.7
20260906073505 29 198 0.0 3.2 0.00 0.00 0.00 53 1012.8
20260906073004 29 198 0.0 3.2 0.00 0.00 0.00 53 1012.8
20260906072504 29 198 0.0 3.2 0.00 0.00 0.00 54 1012.8
20260906072025 29 198 0.0 3.2 0.00 0.00 0.00 54 1012.8
20260906071504 30 198 0.0 1.6 0.00 0.00 0.00 53 1012.8
20260906071004 30 198 0.0 1.6 0.00 0.00 0.00 53 1012.9
20260906070504 30 197 0.0 1.6 0.00 0.00 0.00 52 1012.9
20260906070004 30 196 0.0 4.8 0.00 0.00 0.00 52 1012.9
20260906065504 30 195 1.6 4.8 0.00 0.00 0.00 52 1012.9
20260906065004 30 194 0.0 4.8 0.00 0.00 0.00 51 1012.8
20260906064504 30 0 0.0 0.0 0.00 0.00 0.00 51 1012.8
20260906064004 30 193 0.0 6.4 0.00 0.00 0.00 51 1012.8
20260906063524 30 193 0.0 6.4 0.00 0.00 0.00 51 1012.9
20260906063024 30 189 1.6 6.4 0.00 0.00 0.00 51 1012.9
20260906062525 30 188 1.6 6.4 0.00 0.00 0.00 51 1012.9
20260906062003 30 185 1.6 6.4 0.00 0.00 0.00 51 1012.9
20260906061504 30 186 3.2 8.0 0.00 0.00 0.00 51 1012.9
20260906061003 30 185 3.2 8.0 0.00 0.00 0.00 51 1012.9
20260906060504 30 182 3.2 11.3 0.00 0.00 0.00 51 1012.9
20260906060004 30 187 4.8 12.9 0.00 0.00 0.00 50 1012.9
20260906055504 31 186 6.4 12.9 0.00 0.00 0.00 50 1012.8
20260906055004 31 188 4.8 11.3 0.00 0.00 0.00 50 1012.7
20260906054504 31 197 4.8 9.7 0.00 0.00 0.00 50 1012.8
20260906054004 31 198 4.8 9.7 0.00 0.00 0.00 50 1012.7
20260906053504 31 203 3.2 8.0 0.00 0.00 0.00 49 1012.6
20260906053025 31 208 1.6 6.4 0.00 0.00 0.00 49 1012.6
20260906052504 31 207 3.2 9.7 0.00 0.00 0.00 48 1012.5
20260906052025 31 205 3.2 9.7 0.00 0.00 0.00 48 1012.4
20260906051504 31 202 4.8 9.7 0.00 0.00 0.00 48 1012.4
20260906051004 31 200 3.2 9.7 0.00 0.00 0.00 48 1012.3
20260906050525 31 195 3.2 9.7 0.00 0.00 0.00 48 1012.4
20260906050025 31 190 3.2 12.9 0.00 0.00 0.00 49 1012.3
20260906045503 31 192 4.8 12.9 0.00 0.00 0.00 49 1012.3
20260906045003 31 193 3.2 8.0 0.00 0.00 0.00 50 1012.4
20260906044503 31 189 1.6 6.4 0.00 0.00 0.00 50 1012.4
20260906044003 31 188 0.0 6.4 0.00 0.00 0.00 50 1012.3
20260906043504 31 0 0.0 0.0 0.00 0.00 0.00 49 1012.4
20260906043004 31 185 1.6 4.8 0.00 0.00 0.00 49 1012.4
20260906042504 31 185 1.6 4.8 0.00 0.00 0.00 49 1012.4
20260906042004 31 184 1.6 4.8 0.00 0.00 0.00 49 1012.4
20260906041504 31 183 1.6 6.4 0.00 0.00 0.00 48 1012.4
20260906041004 31 183 1.6 6.4 0.00 0.00 0.00 48 1012.5
20260906040504 32 182 1.6 4.8 0.00 0.00 0.00 48 1012.5
20260906040004 32 182 1.6 6.4 0.00 0.00 0.00 48 1012.5
20260906035504 32 182 0.0 6.4 0.00 0.00 0.00 48 1012.5
20260906035004 32 182 1.6 4.8 0.00 0.00 0.00 48 1012.5
20260906034504 32 183 1.6 6.4 0.00 0.00 0.00 48 1012.5
20260906034003 32 165 1.6 11.3 0.00 0.00 0.00 48 1012.4
20260906033524 32 155 1.6 11.3 0.00 0.00 0.00 48 1012.4
20260906033003 31 0 0.0 0.0 0.00 0.00 0.00 48 1012.3
20260906032504 32 0 0.0 0.0 0.00 0.00 0.00 49 1012.3
20260906032004 32 0 0.0 0.0 0.00 0.00 0.00 48 1012.3
20260906031504 32 0 0.0 0.0 0.00 0.00 0.00 48 1012.3
20260906031004 32 0 0.0 0.0 0.00 0.00 0.00 48 1012.3
20260906030525 32 0 0.0 0.0 0.00 0.00 0.00 48 1012.3
20260906030004 32 0 0.0 0.0 0.00 0.00 0.00 48 1012.3
20260906025504 32 0 0.0 0.0 0.00 0.00 0.00 48 1012.3
20260906025004 32 0 0.0 0.0 0.00 0.00 0.00 48 1012.2
20260906024504 32 0 0.0 0.0 0.00 0.00 0.00 48 1012.2
20260906024004 32 0 0.0 0.0 0.00 0.00 0.00 48 1012.1
20260906023503 32 0 0.0 0.0 0.00 0.00 0.00 47 1012.1
20260906023004 32 0 0.0 0.0 0.00 0.00 0.00 47 1011.9
20260906022503 32 0 0.0 0.0 0.00 0.00 0.00 47 1011.9
20260906022003 32 123 0.0 1.6 0.00 0.00 0.00 47 1011.8
20260906021503 32 123 0.0 1.6 0.00 0.00 0.00 47 1011.8
20260906021024 32 123 0.0 1.6 0.00 0.00 0.00 46 1011.8
20260906020504 33 123 0.0 1.6 0.00 0.00 0.00 46 1011.7
20260906020004 33 123 0.0 3.2 0.00 0.00 0.00 46 1011.7
20260906015525 33 123 0.0 3.2 0.00 0.00 0.00 46 1011.7
20260906015025 33 123 0.0 1.6 0.00 0.00 0.00 45 1011.7
20260906014504 33 122 0.0 1.6 0.00 0.00 0.00 45 1011.6
20260906014004 33 119 0.0 3.2 0.00 0.00 0.00 45 1011.6
20260906013504 33 119 0.0 3.2 0.00 0.00 0.00 45 1011.5
20260906013025 33 119 1.6 6.4 0.00 0.00 0.00 44 1011.4
20260906012503 33 120 1.6 6.4 0.00 0.00 0.00 43 1011.4
20260906012004 34 121 1.6 6.4 0.00 0.00 0.00 43 1011.3
20260906011504 34 120 1.6 6.4 0.00 0.00 0.00 43 1011.3
20260906011004 34 120 1.6 9.7 0.00 0.00 0.00 42 1011.3
20260906010503 35 121 1.6 9.7 0.00 0.00 0.00 41 1011.2
20260906010003 35 140 1.6 11.3 0.00 0.00 0.00 41 1011.1
20260906005504 35 142 1.6 11.3 0.00 0.00 0.00 41 1011.1
20260906005004 35 120 3.2 12.9 0.00 0.00 0.00 40 1011.1
20260906004503 35 110 8.0 17.7 0.00 0.00 0.00 40 1011.0
20260906004024 36 111 9.7 17.7 0.00 0.00 0.00 40 1011.0
20260906003503 36 123 6.4 16.1 0.00 0.00 0.00 39 1011.0
20260906003003 36 118 8.0 17.7 0.00 0.00 0.00 38 1011.0
20260906002503 36 113 8.0 17.7 0.00 0.00 0.00 38 1011.0
20260906002003 36 129 8.0 17.7 0.00 0.00 0.00 37 1010.9
20260906001525 37 135 4.8 17.7 0.00 0.00 0.00 37 1010.8
20260906001025 37 120 3.2 12.9 0.00 0.00 0.00 37 1010.8
20260906000504 37 133 4.8 14.5 0.00 0.00 0.00 37 1010.8
20260906000004 37 141 6.4 16.1 0.00 0.00 0.00 37 1010.8
20260905235504 37 152 4.8 16.1 0.00 0.00 0.00 35 1010.8
20260905235004 38 158 4.8 16.1 0.00 0.00 0.00 35 1010.8
20260905234504 38 135 6.4 16.1 0.00 0.00 0.00 35 1010.7
20260905234004 38 119 8.0 16.1 0.00 0.00 0.00 35 1010.7
20260905233524 38 128 6.4 16.1 0.00 0.00 0.00 34 1010.6
20260905233024 38 143 3.2 16.1 0.00 0.00 0.00 35 1010.6
20260905232525 38 137 3.2 14.5 0.00 0.00 0.00 34 1010.6
20260905232003 38 148 4.8 19.3 0.00 0.00 0.00 34 1010.6
20260905231503 38 156 6.4 19.3 0.00 0.00 0.00 34 1010.6
20260905231003 38 168 9.7 19.3 0.00 0.00 0.00 34 1010.6
20260905230504 39 175 11.3 24.1 0.00 0.00 0.00 33 1010.6
20260905230004 39 178 8.0 24.1 0.00 0.00 0.00 33 1010.6
20260905225504 38 167 6.4 17.7 0.00 0.00 0.00 34 1010.6
20260905225006 39 160 9.7 24.1 0.00 0.00 0.00 34 1010.6
20260905224527 39 170 11.3 24.1 0.00 0.00 0.00 34 1010.6
20260905224005 39 174 9.7 22.5 0.00 0.00 0.00 33 1010.5
20260905223506 40 152 8.0 22.5 0.00 0.00 0.00 33 1010.5
20260905223026 40 157 9.7 24.1 0.00 0.00 0.00 33 1010.5
20260905222506 40 162 6.4 24.1 0.00 0.00 0.00 33 1010.6
20260905222005 39 159 6.4 19.3 0.00 0.00 0.00 34 1010.6
20260905221505 40 174 9.7 20.9 0.00 0.00 0.00 32 1010.6
20260905221005 40 172 8.0 20.9 0.00 0.00 0.00 32 1010.5
20260905220505 40 171 8.0 19.3 0.00 0.00 0.00 32 1010.7
20260905220005 40 184 9.7 20.9 0.00 0.00 0.00 33 1010.6
20260905215526 39 179 9.7 20.9 0.00 0.00 0.00 34 1010.7
20260905215005 40 164 8.0 20.9 0.00 0.00 0.00 34 1010.7
20260905214505 40 162 6.4 19.3 0.00 0.00 0.00 34 1010.9
20260905214005 40 165 8.0 25.7 0.00 0.00 0.00 34 1010.9
20260905213506 40 167 9.7 25.7 0.00 0.00 0.00 36 1011.0
20260905213006 38 154 8.0 25.7 0.00 0.00 0.00 35 1011.0
20260905212506 38 137 6.4 19.3 0.00 0.00 0.00 34 1011.1
20260905212006 39 131 6.4 17.7 0.00 0.00 0.00 35 1011.2
20260905211505 40 143 8.0 24.1 0.00 0.00 0.00 34 1011.3
20260905211026 40 162 8.0 24.1 0.00 0.00 0.00 34 1011.3
20260905210505 40 154 9.7 25.7 0.00 0.00 0.00 34 1011.4
20260905210005 40 162 11.3 27.4 0.00 0.00 0.00 34 1011.4
20260905205505 40 155 11.3 27.4 0.00 0.00 0.00 35 1011.5
20260905205005 40 145 9.7 22.5 0.00 0.00 0.00 33 1011.6
20260905204526 40 137 9.7 24.1 0.00 0.00 0.00 33 1011.6